This demonstration page uses our WeatherBlox Daily Observations layout. Learn more.

Left ArrowRight Arrow

Hourly Observations for December 5, 2019

Temp ( °F °C ) Dew Point ( °F °C ) Humidity (%) Winds ( mph kmh ) Pressure ( in mb ) Visibility ( mi km ) Precip ( " mm )
12:53 am 00:53 Cloudy 29 -1.7 25 -3.9 85 85 N 9 15 30.01 1016 10 16 0.00 0.00
1:42 am 01:42 Cloudy 28 -2 25 -4 86 86 NNE 7 11 30.10 1019 10 16 0.00 0.00
1:53 am 01:53 Cloudy 28 -2.2 23 -5 81 81 N 9 15 30.06 1018 10 16 0.00 0.00
2:53 am 02:53 Cloudy 28 -2.2 22 -5.6 78 78 N 9 15 30.08 1019 10 16 0.00 0.00
3:53 am 03:53 Cloudy 27 -2.8 22 -5.6 81 81 NNE 8 13 30.11 1020 10 16 0.00 0.00
4:53 am 04:53 Cloudy 27 -2.8 22 -5.6 81 81 NNE 5 7 30.12 1020 10 16 0.00 0.00
5:53 am 05:53 Cloudy 27 -2.8 22 -5.6 81 81 Calm 30.15 1021 10 16 0.00 0.00
6:53 am 06:53 Cloudy 27 -2.8 22 -5.6 81 81 E 3 6 30.17 1022 10 16 0.00 0.00
7:53 am 07:53 Mostly Clear 25 -3.9 23 -5 92 92 SE 3 6 30.19 1022 10 16 0.00 0.00
8:53 am 08:53 Cloudy 26 -3.3 23 -5 88 88 NNE 3 6 30.22 1023 10 16 0.00 0.00
9:53 am 09:53 Cloudy 27 -2.8 23 -5 85 85 Calm 30.23 1024 10 16 0.00 0.00
10:53 am 10:53 undefined 30 -1.1 22 -5.6 72 72 E 5 7 30.23 1024 10 16 0.00 0.00
11:53 am 11:53 undefined 33 0.6 22 -5.6 64 64 ENE 6 9 30.21 1023 N/A 0.00 0.00
12:53 pm 12:53 Partly Cloudy 34 1.1 23 -5 64 64 ENE 8 13 30.18 1022 10 16 0.00 0.00
1:53 pm 13:53 Mostly Sunny 35 1.7 23 -5 61 61 E 5 7 30.19 1022 10 16 0.00 0.00
2:53 pm 14:53 Cloudy 35 1.7 23 -5 61 61 ENE 5 7 30.18 1022 10 16 0.00 0.00
3:53 pm 15:53 Sunny 34 1.1 24 -4.4 67 67 E 3 6 30.18 1022 10 16 0.00 0.00
4:53 pm 16:53 Clear 30 -1.1 23 -5 75 75 ENE 5 7 30.19 1022 10 16 0.00 0.00
5:53 pm 17:53 Clear 27 -2.8 22 -5.6 81 81 Calm 30.17 1022 10 16 0.00 0.00
6:53 pm 18:53 Clear 26 -3.3 22 -5.6 84 84 Calm 30.17 1022 10 16 0.00 0.00
7:53 pm 19:53 Clear 23 -5 21 -6.1 92 92 E 5 7 30.19 1022 10 16 0.00 0.00
8:53 pm 20:53 Clear 24 -4.4 21 -6.1 88 88 NE 5 7 30.18 1022 10 16 0.00 0.00
9:53 pm 21:53 Clear 22 -5.6 19 -7.2 89 89 ENE 6 9 30.17 1022 10 16 0.00 0.00
10:53 pm 22:53 Clear 22 -5.6 19 -7.2 89 89 NNE 5 7 30.18 1022 10 16 0.00 0.00
11:53 pm 23:53 Clear 22 -5.6 19 -7.2 89 89 E 3 6 30.15 1021 10 16 0.00 0.00

Powered by AerisWeather